EW5295 Weather Reports


Display with metric or nautical units.
time (UTC)temp
F
wind
direction
speed
MPH
gust
MPH
rain 1hr
in
rain 24hr
in
rain mn
in
humidity
%
barometer
mb
20201125013114 43 83 0.0 1.0 0.07 0.07 0.07 95 1013.9
20201125011655 44 134 0.0 1.0 0.05 0.05 0.05 95 1013.9
20201125010117 45 41 0.0 2.0 0.03 0.03 0.03 96 1013.6
20201125004700 45 160 0.0 3.0 0.01 0.01 0.01 96 1013.1
20201125003058 46 15 0.0 2.0 0.00 0.00 0.00 95 1013.2
20201125001620 46 132 0.0 4.0 0.00 0.00 0.00 93 1013.3
20201125000207 46 70 0.0 6.0 0.00 0.00 0.00 92 1013.6
20201124234816 46 113 0.0 3.0 0.00 0.00 0.00 92 1013.9
20201124233129 46 281 0.0 3.0 0.00 0.00 0.00 91 1014.0
20201124231639 46 180 0.0 2.0 0.00 0.00 0.00 91 1014.0
20201124230101 46 143 0.0 3.0 0.00 0.00 0.00 91 1014.2
20201124224524 46 155 0.0 2.0 0.00 0.00 0.00 91 1014.3
20201124223210 45 34 1.0 5.0 0.00 0.00 0.00 92 1014.6
20201124221709 45 82 1.0 4.0 0.00 0.00 0.00 91 1014.9
20201124220111 45 140 0.0 4.0 0.00 0.00 0.00 90 1015.1
20201124214611 45 138 0.0 2.0 0.00 0.00 0.00 90 1015.5
20201124213039 45 36 0.0 6.0 0.00 0.00 0.00 90 1015.8
20201124211519 46 7 1.0 6.0 0.00 0.00 0.00 87 1016.1
20201124210155 46 132 0.0 4.0 0.00 0.00 0.00 85 1016.1
20201124204651 46 169 1.0 10.0 0.00 0.00 0.00 84 1016.3
20201124203141 46 288 0.0 8.0 0.00 0.00 0.00 85 1016.5
20201124201618 46 328 0.0 3.0 0.00 0.00 0.00 85 1017.0
20201124200127 45 119 0.0 3.0 0.00 0.00 0.00 88 1017.3
20201124194643 44 69 0.0 3.0 0.00 0.00 0.00 89 1017.6
20201124193307 44 105 0.0 4.0 0.00 0.00 0.00 89 1017.9
20201124191622 44 49 1.0 4.0 0.00 0.00 0.00 88 1018.3
20201124190107 44 124 0.0 2.0 0.00 0.00 0.00 89 1018.6
20201124184521 44 117 0.0 3.0 0.00 0.02 0.00 90 1019.0
20201124183155 43 5 0.0 4.0 0.00 0.02 0.00 90 1019.1
20201124181612 43 120 0.0 3.0 0.00 0.02 0.00 91 1019.5
20201124180124 42 60 0.0 2.0 0.00 0.02 0.00 92 1019.4
20201124174606 42 178 0.0 1.0 0.00 0.10 0.00 92 1019.6
20201124173054 42 220 0.0 2.0 0.00 0.10 0.00 92 1019.6
20201124171533 42 113 0.0 3.0 0.00 0.10 0.00 92 1019.6
20201124164738 42 335 0.0 3.0 0.00 0.13 0.00 91 1019.8
20201124163236 41 56 0.0 2.0 0.00 0.13 0.00 91 1020.0
20201124161601 41 67 0.0 2.0 0.00 0.13 0.00 92 1020.1
20201124160104 41 136 0.0 1.0 0.00 0.13 0.00 92 1020.3
20201124154547 41 93 0.0 4.0 0.00 0.13 0.00 93 1020.3
20201124153035 40 153 0.0 2.0 0.00 0.13 0.00 94 1020.5
20201124151724 40 56 0.0 1.0 0.00 0.13 0.00 95 1020.4
20201124150149 40 103 0.0 2.0 0.00 0.13 0.00 95 1020.5
20201124144544 40 67 0.0 4.0 0.00 0.13 0.00 95 1020.7
20201124143056 40 120 0.0 1.0 0.00 0.13 0.00 96 1021.0
20201124141522 40 160 0.0 0.0 0.00 0.13 0.00 97 1021.2
20201124140042 40 158 0.0 1.0 0.00 0.13 0.00 97 1021.3
20201124134735 40 176 0.0 1.0 0.00 0.14 0.00 97 1021.3
20201124133115 40 119 0.0 1.0 0.00 0.14 0.00 97 1021.3
20201124131649 40 113 0.0 1.0 0.00 0.14 0.00 98 1021.4
20201124130037 40 219 0.0 2.0 0.00 0.14 0.00 98 1021.5
20201124124526 40 328 0.0 3.0 0.00 0.14 0.00 98 1021.5
20201124123119 41 117 0.0 1.0 0.00 0.14 0.00 98 1021.6
20201124121711 41 126 0.0 1.0 0.00 0.14 0.00 98 1021.6
20201124120213 41 130 0.0 1.0 0.00 0.14 0.00 98 1021.9
20201124114629 41 131 0.0 2.0 0.00 0.14 0.00 98 1022.0
20201124113048 41 142 0.0 2.0 0.00 0.14 0.00 98 1022.0
20201124111606 41 169 0.0 1.0 0.00 0.14 0.00 98 1021.9
20201124110032 41 146 0.0 1.0 0.00 0.14 0.00 98 1021.9
20201124104523 41 101 0.0 1.0 0.00 0.14 0.00 98 1022.1
20201124103050 40 127 0.0 1.0 0.00 0.14 0.00 98 1022.1
20201124101633 40 67 0.0 0.0 0.00 0.14 0.00 98 1022.2
20201124100129 40 66 0.0 2.0 0.00 0.14 0.00 98 1022.1
20201124094729 41 115 0.0 1.0 0.00 0.14 0.00 97 1022.3
20201124093138 41 156 0.0 0.0 0.00 0.14 0.00 97 1022.2
20201124091759 41 158 0.0 0.0 0.00 0.14 0.00 97 1022.2
20201124090202 42 150 0.0 1.0 0.00 0.14 0.00 98 1022.3
20201124084602 42 128 0.0 1.0 0.00 0.14 0.00 98 1022.2
20201124083204 42 46 0.0 2.0 0.00 0.14 0.00 98 1022.3
20201124081601 42 153 0.0 0.0 0.00 0.14 0.00 98 1022.4
20201124080025 42 176 0.0 0.0 0.00 0.14 0.00 98 1022.4
20201124074712 42 182 0.0 0.0 0.00 0.14 0.14 98 1022.4
20201124073235 42 190 0.0 1.0 0.00 0.14 0.14 98 1022.4
20201124071740 43 87 0.0 1.0 0.00 0.14 0.14 98 1022.4
20201124070157 43 101 0.0 1.0 0.00 0.14 0.14 98 1022.1
20201124064717 43 104 0.0 0.0 0.00 0.14 0.14 98 1022.3
20201124063321 42 105 0.0 0.0 0.00 0.14 0.14 98 1022.2
20201124061741 42 105 0.0 0.0 0.00 0.14 0.14 98 1022.1
20201124060206 42 105 0.0 0.0 0.00 0.14 0.14 98 1022.0
20201124054606 42 105 0.0 0.0 0.00 0.14 0.14 98 1021.9
20201124051721 42 105 0.0 1.0 0.00 0.14 0.14 98 1021.7
20201124050116 42 104 0.0 1.0 0.00 0.14 0.14 97 1021.7
20201124044639 42 104 0.0 0.0 0.00 0.19 0.14 97 1021.7
20201124041632 42 105 0.0 0.0 0.00 0.19 0.14 97 1021.7
20201124040133 42 104 0.0 0.0 0.00 0.19 0.14 97 1021.9
20201124034602 42 105 0.0 0.0 0.00 0.24 0.14 97 1021.9
20201124031652 42 105 0.0 0.0 0.00 0.24 0.14 97 1021.6
20201124030159 42 105 0.0 0.0 0.00 0.24 0.14 96 1021.5
20201124024551 43 104 0.0 0.0 0.00 0.24 0.14 96 1021.5
20201124023052 43 104 0.0 0.0 0.00 0.24 0.14 96 1021.4
20201124020107 44 105 0.0 0.0 0.00 0.24 0.14 96 1021.2
20201124014724 44 104 0.0 1.0 0.00 0.26 0.14 96 1021.1